Temperature
20 21 21 22 22 21 21 19 20 20 20 20 20 19 19 20 20 20 20 20 20 21 21 21 21 20 20 20 20 19 19 19 19 19 18 18 18 17 17 17 17 17 16 16
20 21 21 21 21 21 21 20 20 20 20 20 19 19 19 19 19 19 20 20 20 20 21 20 20 20 20 20 20 19 19 19 19 18 18 18 18 17 17 17 17 16 16 16
19 20 21 21 20 20 20 20 20 20 20 19 18 18 19 19 20 20 20 20 20 20 20 20 20 20 20 20 19 19 19 19 19 18 18 18 17 17 17 17 16 16 16 16
16 20 20 20 20 20 20 20 19 19 19 18 18 19 19 20 20 20 20 20 20 20 20 20 20 20 20 19 19 19 19 19 18 18 17 17 17 17 17 16 16 16 16 15
15 17 19 20 20 20 20 19 19 19 19 18 19 19 19 20 20 20 21 21 20 20 20 20 20 20 19 19 18 18 18 18 18 18 17 17 17 17 16 16 16 16 16 15
15 18 18 19 19 20 20 19 19 18 18 18 18 18 18 20 20 20 20 20 20 19 19 19 19 19 19 18 18 18 18 18 18 17 17 17 17 17 16 16 16 16 15 15
15 17 17 18 18 20 20 19 19 18 18 18 18 19 20 20 19 19 19 19 19 19 19 19 19 19 18 18 18 18 18 18 17 17 17 17 17 16 16 16 16 15 15 15
14 17 17 17 17 18 18 18 18 18 19 18 19 19 19 19 19 19 19 19 19 19 19 19 18 18 18 18 18 18 18 17 17 17 17 16 16 16 16 16 15 15 15 15
14 15 15 16 16 17 18 18 18 19 19 19 18 19 19 19 19 18 19 19 18 18 18 18 18 18 18 18 18 17 17 17 17 17 17 16 16 16 16 15 15 15 15 15
13 14 15 16 17 17 18 18 18 19 19 19 19 18 18 18 18 18 18 18 18 18 18 18 18 18 17 17 17 17 17 17 16 16 16 16 16 15 15 15 15 15 14 14
13 14 15 16 17 17 18 18 18 19 19 19 19 18 18 18 18 18 18 18 18 18 18 18 18 17 17 17 17 16 16 16 16 16 16 16 15 15 15 15 15 15 14 14
13 14 14 15 16 17 17 17 18 18 18 18 18 18 18 17 17 17 17 17 17 17 17 17 17 17 17 16 16 16 16 16 16 16 15 15 15 15 15 15 15 14 14 14
16 16 16 16 16 17 17 17 17 18 18 17 17 17 17 17 17 17 17 17 17 17 17 17 16 16 16 16 16 16 16 15 15 15 15 15 15 15 15 14 14 14 14 14
16 16 15 16 16 16 16 16 17 17 17 17 17 17 17 16 16 16 16 17 16 16 16 16 16 16 16 15 15 15 15 15 15 15 15 15 15 14 14 14 14 14 14 14
15 16 15 15 15 16 16 16 16 16 16 16 16 16 16 16 16 16 16 16 16 16 15 15 15 15 15 15 15 15 15 15 14 14 14 14 14 14 14 13 13 13 13 13
15 15 15 15 15 15 15 16 16 15 15 15 15 15 15 15 15 15 15 15 15 15 15 15 15 15 15 15 15 14 14 14 14 14 14 14 14 14 13 13 13 13 13 13
15 14 14 14 15 15 15 15 15 15 15 15 14 14 15 15 15 15 15 15 15 15 15 14 15 14 14 14 14 14 14 14 14 14 14 14 13 13 13 13 13 13 13 13
15 15 15 15 15 14 14 14 14 14 14 14 14 14 14 14 14 14 14 14 14 14 14 14 14 14 14 14 14 14 14 14 13 13 13 13 13 13 13 13 13 13 13 12
15 15 14 14 14 14 14 14 14 14 14 14 14 14 14 14 14 14 14 14 14 14 14 14 13 13 13 13 13 13 13 13 13 13 13 13 13 13 12 12 12 12 12 12
14 14 14 14 14 14 14 14 14 13 13 13 13 13 13 13 13 13 13 14 13 13 13 13 13 13 13 13 13 13 13 13 13 13 13 13 13 12 12 12 12 12 12 12
14 13 13 13 13 13 13 13 13 13 13 13 13 13 13 13 13 13 13 13 13 13 13 13 13 13 13 13 13 13 13 12 12 12 12 12 12 12 12 12 11 11 11 11
13 13 13 13 13 12 13 13 13 13 13 12 12 12 12 12 12 13 13 13 13 13 13 13 12 12 12 12 12 12 12 12 12 12 12 12 12 12 11 11 11 11 11 11
13 12 12 12 12 12 12 12 12 12 12 12 12 12 12 12 12 12 12 12 12 12 12 12 12 12 12 12 12 12 12 12 12 12 11 11 11 11 11 11 11 11 10 10
12 12 12 12 12 12 12 12 12 12 12 12 12 12 12 12 12 12 12 12 12 12 12 12 12 12 12 12 12 12 11 11 11 11 11 11 11 11 11 11 10 10 10 10
12 12 12 11 11 11 11 11 11 11 11 11 11 11 11 11 11 11 11 11 11 11 11 11 11 11 11 11 11 11 11 11 11 11 11 10 10 10 10 10 10 10 9 9
12 11 11 11 11 11 11 11 11 11 11 11 11 11 11 11 11 11 11 11 11 11 11 11 11 11 11 11 11 11 10 10 10 10 10 10 10 10 9 9 9 9 9 9
11 11 11 11 11 11 11 11 11 11 11 11 11 11 11 11 11 11 11 11 10 10 10 10 10 10 10 10 10 10 10 10 10 10 10 9 9 9 9 9 9 9 8 8
Wind_Speed
3 3 4 3 4 5 5 8 8 8 8 8 7 6 5 4 5 6 6 6 6 6 5 5 5 5 6 6 6 6 6 6 6 5 5 4 3 3 3 2 3 2 2 2
1 1 3 1 2 5 4 4 4 3 6 6 4 3 4 5 7 7 6 6 6 6 6 5 5 5 5 5 6 6 6 6 5 5 5 4 4 3 3 2 2 2 2 2
2 2 2 2 4 5 4 3 6 7 7 4 2 5 7 7 8 8 7 7 7 6 6 6 6 6 6 5 5 5 5 4 4 4 4 4 4 3 3 3 3 2 2 2
2 2 4 7 3 4 5 2 4 4 5 6 6 4 3 4 7 7 7 6 6 5 5 4 5 5 5 5 5 5 5 4 4 4 4 4 3 3 3 3 3 3 3 3
4 3 3 4 1 2 4 3 3 4 4 4 4 3 1 2 4 6 6 5 5 5 5 5 5 6 6 5 5 5 4 4 4 5 5 4 4 4 3 3 3 3 3 3
4 5 6 6 4 2 3 3 2 4 5 6 6 3 4 3 4 4 4 4 4 4 5 6 5 6 6 5 4 4 5 5 4 4 5 5 4 3 3 3 3 3 3 3
4 4 5 4 6 1 4 6 2 3 6 7 6 5 4 5 4 4 5 5 5 6 5 4 5 7 6 5 4 4 4 4 4 4 4 4 4 3 2 2 2 3 3 4
4 3 6 3 2 3 5 3 1 2 3 5 4 4 5 5 5 5 5 5 5 5 4 3 5 6 5 4 4 3 3 3 3 2 3 3 3 3 3 3 3 3 3 4
5 5 4 2 3 4 2 1 1 1 2 4 4 4 4 4 5 4 4 4 4 5 4 3 3 5 5 4 3 3 3 3 2 2 2 2 3 3 3 3 3 3 3 4
0 3 4 4 3 3 3 2 2 1 3 5 5 5 4 4 4 4 3 4 4 5 4 3 3 3 4 3 4 4 4 3 2 2 2 2 2 3 3 3 3 3 4 4
1 4 4 4 3 3 4 4 3 2 3 4 6 5 4 3 3 4 3 3 4 4 4 4 3 2 2 3 4 4 4 3 3 3 3 2 2 3 4 4 5 5 5 4
5 5 3 4 4 3 3 3 2 3 4 3 4 4 4 3 2 3 3 3 3 3 3 2 3 2 2 3 4 5 4 3 3 3 3 3 2 2 3 4 5 7 7 6
4 3 2 3 3 3 2 2 2 3 3 3 3 3 3 2 2 2 2 2 3 3 3 2 2 2 3 3 5 5 5 4 3 4 4 4 4 4 3 3 3 5 6 7
3 2 0 1 2 2 1 1 3 4 4 3 3 4 4 3 2 2 1 1 1 2 2 3 3 3 3 4 5 5 5 5 5 4 4 4 5 5 4 4 4 3 3 5
2 2 3 1 1 1 1 3 5 4 4 4 3 3 3 3 2 1 1 0 2 1 1 2 2 3 3 4 5 5 5 4 4 4 4 4 4 4 4 4 4 4 3 3
1 1 2 2 2 1 2 3 4 3 3 3 3 2 1 1 1 1 0 1 2 1 2 2 3 3 3 3 4 4 4 5 5 4 4 4 4 5 5 5 5 4 5 5
3 2 2 3 2 2 2 2 2 2 2 1 0 0 1 2 3 2 2 1 1 2 2 2 3 3 2 3 4 3 3 3 4 4 4 5 5 5 5 4 5 5 5 5
6 5 5 5 4 3 2 2 2 2 1 1 1 1 1 1 0 2 2 1 1 1 2 2 3 3 3 3 4 3 3 3 3 4 4 4 4 4 4 4 5 5 4 4
3 4 3 3 3 3 2 2 1 1 1 1 1 0 1 1 1 3 2 0 0 2 3 3 4 3 4 4 3 3 3 3 3 3 3 4 4 4 4 4 4 4 4 3
3 3 4 3 2 2 2 1 2 1 0 1 1 1 2 2 2 2 1 1 3 3 3 3 3 3 4 4 3 3 3 3 3 3 3 3 4 4 4 4 4 4 4 3
4 4 4 4 2 2 1 2 2 1 0 1 1 1 2 2 2 1 1 2 4 3 3 3 2 2 2 2 2 2 2 3 3 3 3 3 4 4 4 4 4 3 3 3
4 4 4 4 3 2 1 1 2 2 1 0 1 1 1 2 2 2 1 2 3 3 2 2 2 2 2 2 1 2 2 2 3 3 3 3 3 3 3 3 3 3 3 3
3 4 4 3 3 2 1 1 1 1 1 1 1 1 1 1 1 1 2 2 2 3 2 2 3 4 3 2 1 1 2 2 2 2 2 2 3 3 3 3 3 3 2 3
3 3 3 3 3 3 2 0 0 1 1 0 1 0 0 0 1 1 1 2 3 3 3 3 5 5 4 2 1 1 1 1 2 2 2 2 2 2 2 3 3 3 3 3
3 4 4 4 4 2 2 1 2 2 1 1 2 2 1 1 1 1 1 2 3 3 3 4 6 6 4 2 2 2 2 2 2 2 2 2 2 2 2 2 3 3 3 4
3 3 3 3 3 2 2 2 2 1 1 1 2 3 2 2 2 1 2 2 3 4 3 3 4 4 3 3 3 3 3 3 2 2 2 2 2 2 3 3 3 3 4 4
3 3 3 2 1 2 2 3 2 2 2 2 2 2 2 2 2 3 3 3 3 3 3 3 3 3 3 3 3 3 3 3 3 2 2 3 3 3 3 4 3 3 3 4
Wind_Direction
211 207 171 176 182 174 174 177 179 214 218 244 237 219 201 167 147 140 146 149 158 163 163 162 157 158 160 160 157 155 158 168 182 181 175 170 169 171 171 176 190 187 186 200
336 228 158 171 205 185 195 183 193 195 245 248 227 170 165 166 156 159 167 167 168 167 163 168 168 165 159 166 165 156 163 176 177 171 171 174 177 173 170 183 185 175 193 207
227 285 69 253 226 193 183 192 176 203 229 205 191 191 194 186 173 176 177 176 175 176 174 175 174 165 166 170 158 155 165 170 172 174 177 182 183 176 186 194 193 196 212 216
138 101 203 239 249 176 168 215 209 211 211 192 195 195 188 184 180 179 177 177 175 172 165 163 155 151 149 145 147 159 168 174 174 175 183 179 178 191 202 198 197 213 223 224
132 162 250 285 261 167 179 256 227 199 194 166 134 85 3 207 182 181 179 173 170 171 160 147 141 138 133 141 151 160 175 181 183 184 184 184 193 199 202 200 213 221 220 223
130 151 211 242 289 282 135 270 243 179 183 166 135 156 237 207 168 151 140 140 145 145 134 139 143 136 136 148 154 174 187 186 182 176 176 188 197 204 199 196 212 218 233 239
145 182 244 269 308 46 163 234 245 195 191 172 180 200 187 143 143 143 140 134 132 130 134 146 145 140 147 159 187 198 177 164 165 169 176 185 185 195 189 202 219 228 241 247
143 168 238 307 21 186 232 286 254 195 180 163 164 138 127 131 132 131 126 122 128 129 132 132 142 149 156 185 202 170 149 154 164 169 179 181 177 192 188 191 214 233 245 259
184 208 253 277 252 279 267 276 272 194 162 143 139 135 131 134 133 132 135 138 136 137 135 133 154 160 172 196 162 144 145 166 176 175 188 184 185 194 194 195 212 240 243 253
284 290 298 319 323 340 344 322 313 182 146 139 136 131 131 139 136 130 133 145 140 138 152 176 189 179 184 173 156 157 171 186 184 190 213 213 201 203 209 214 215 228 239 250
273 285 330 343 341 340 350 2 19 67 100 127 132 130 134 133 138 143 148 149 146 158 184 198 195 195 188 169 161 172 185 194 205 215 218 223 222 223 224 225 216 220 233 232
216 232 209 262 296 325 356 2 34 69 59 74 120 129 125 133 150 157 154 146 145 161 186 198 190 201 199 177 173 177 194 204 210 215 218 218 216 257 258 245 250 241 238 237
216 229 226 264 306 333 347 350 24 72 90 85 76 95 105 125 136 124 118 136 159 178 190 191 189 210 214 190 185 193 206 212 215 214 213 215 215 221 254 282 269 254 243 237
201 157 242 273 285 319 9 48 63 61 61 76 79 79 86 95 97 99 130 200 188 179 185 191 195 219 220 196 194 205 213 218 216 219 220 220 221 223 227 240 263 277 259 240
245 192 204 240 309 21 48 80 74 56 52 50 56 76 93 106 127 170 223 140 118 138 196 208 220 242 227 202 204 212 215 218 218 222 224 225 226 227 230 236 245 258 272 267
242 104 127 136 146 131 102 96 91 71 55 48 43 41 62 85 79 63 27 109 134 205 235 229 246 255 232 212 215 221 225 225 223 224 227 226 224 224 230 233 242 249 254 256
168 184 179 181 176 170 143 133 138 132 98 82 77 51 71 60 41 13 342 315 200 220 226 235 261 274 249 226 220 222 225 232 228 231 232 231 229 229 233 234 240 247 254 249
197 202 196 187 180 156 120 107 116 118 148 185 157 79 94 107 358 285 284 295 348 322 289 268 271 276 259 243 230 226 220 225 229 232 235 234 235 234 235 237 239 246 257 254
156 165 165 157 153 145 146 136 126 135 144 135 103 46 278 239 241 269 277 214 260 282 286 277 267 259 258 255 247 238 230 226 230 234 236 237 239 238 236 239 243 247 246 244
141 144 138 131 119 127 145 143 121 107 62 92 84 43 345 325 310 299 310 300 276 265 275 288 276 260 256 250 245 236 231 231 236 243 239 238 243 248 248 247 248 247 240 231
148 143 139 142 136 123 142 147 137 141 136 127 136 219 266 291 300 301 322 315 313 314 310 303 288 272 263 255 244 243 240 242 244 243 240 241 246 251 252 251 250 246 238 235
156 152 151 150 144 138 153 149 146 148 131 152 218 246 284 315 332 336 321 277 300 328 337 330 322 306 299 289 268 258 254 250 252 250 245 241 241 246 250 251 251 250 244 237
152 153 149 148 150 149 125 121 135 143 142 184 241 263 269 289 296 292 312 315 319 339 352 342 333 332 327 324 302 281 278 275 272 265 262 258 252 251 254 257 256 251 242 239
134 136 137 132 125 119 113 325 75 87 81 50 317 308 196 353 335 304 254 316 348 0 2 336 341 349 351 353 344 335 320 309 299 290 283 281 281 276 270 265 261 253 242 239
129 129 126 129 132 148 166 132 91 76 77 43 11 15 17 138 148 358 23 13 5 5 357 349 357 0 10 5 356 340 322 313 304 299 291 283 282 280 277 269 261 257 254 252
123 130 143 159 165 165 155 136 129 121 108 67 26 23 29 40 54 45 34 26 26 14 6 2 3 1 6 3 357 353 346 340 340 331 309 302 302 300 292 283 273 269 269 267
101 103 101 91 93 135 136 130 129 124 120 110 63 24 31 37 40 37 37 34 29 20 12 8 5 5 6 4 360 354 348 343 338 331 325 319 314 307 301 295 291 288 282 275
Height
1473 1469 1470 1471 1472 1475 1479 1483 1490 1486 1483 1474 1470 1469 1470 1472 1474 1476 1478 1481 1483 1486 1489 1491 1494 1496 1498 1501 1504 1507 1509 1510 1511 1513 1515 1516 1517 1518 1519 1520 1521 1522 1522 1522
1474 1469 1468 1472 1470 1472 1473 1475 1478 1477 1478 1467 1467 1468 1470 1471 1472 1474 1476 1479 1481 1484 1487 1489 1492 1494 1497 1499 1502 1504 1506 1507 1509 1511 1512 1513 1514 1516 1517 1518 1518 1519 1519 1520
1483 1474 1471 1479 1472 1471 1472 1471 1472 1476 1471 1466 1467 1467 1467 1468 1470 1472 1474 1477 1480 1482 1484 1487 1490 1492 1495 1498 1500 1501 1503 1505 1507 1508 1509 1511 1512 1513 1514 1515 1516 1516 1516 1517
1486 1481 1490 1476 1463 1463 1466 1466 1465 1464 1463 1463 1464 1465 1466 1466 1468 1470 1473 1475 1478 1480 1483 1486 1488 1491 1494 1496 1498 1500 1501 1503 1505 1506 1507 1508 1509 1510 1511 1512 1513 1513 1513 1514
1490 1490 1483 1470 1463 1463 1466 1467 1462 1462 1462 1462 1464 1465 1466 1466 1467 1468 1471 1474 1476 1479 1481 1484 1487 1489 1492 1494 1496 1498 1499 1500 1502 1503 1505 1505 1507 1507 1508 1509 1510 1510 1511 1511
1486 1487 1488 1473 1461 1459 1463 1468 1459 1459 1460 1461 1463 1469 1466 1464 1466 1468 1471 1473 1475 1478 1481 1484 1486 1489 1491 1492 1494 1495 1496 1498 1499 1501 1502 1503 1503 1504 1506 1506 1507 1507 1508 1508
1482 1483 1477 1464 1460 1459 1472 1467 1458 1458 1458 1459 1460 1461 1462 1463 1466 1468 1470 1472 1475 1478 1480 1483 1486 1488 1489 1491 1492 1493 1494 1496 1497 1498 1499 1500 1501 1502 1503 1503 1504 1504 1504 1504
1481 1482 1478 1460 1460 1464 1463 1457 1456 1456 1457 1457 1458 1459 1461 1463 1465 1468 1470 1472 1474 1477 1479 1482 1485 1487 1488 1490 1491 1492 1492 1494 1495 1496 1497 1498 1499 1500 1500 1499 1500 1501 1500 1501
1473 1473 1463 1460 1460 1460 1458 1457 1456 1455 1456 1457 1458 1459 1461 1463 1465 1468 1470 1472 1474 1476 1479 1481 1483 1485 1487 1488 1489 1490 1491 1492 1493 1493 1494 1495 1496 1496 1496 1497 1496 1496 1496 1496
1468 1464 1461 1459 1458 1458 1457 1456 1456 1456 1456 1457 1457 1459 1461 1463 1465 1467 1469 1472 1474 1476 1478 1480 1481 1483 1485 1487 1488 1488 1489 1490 1490 1491 1492 1492 1493 1493 1493 1493 1492 1493 1493 1493
1467 1464 1460 1459 1458 1458 1457 1456 1456 1457 1456 1457 1458 1459 1461 1463 1464 1466 1469 1471 1473 1474 1476 1478 1480 1482 1483 1485 1486 1486 1487 1487 1488 1488 1489 1490 1490 1490 1489 1490 1489 1490 1490 1490
1465 1461 1461 1460 1459 1459 1458 1457 1457 1456 1456 1458 1458 1459 1461 1462 1465 1466 1468 1469 1471 1473 1475 1476 1478 1480 1481 1483 1484 1484 1485 1485 1485 1486 1486 1486 1486 1487 1486 1487 1487 1487 1487 1487
1458 1458 1459 1459 1458 1458 1458 1457 1457 1457 1457 1458 1458 1459 1461 1463 1464 1466 1467 1468 1469 1471 1473 1474 1476 1477 1479 1480 1481 1482 1482 1482 1482 1483 1483 1483 1483 1483 1483 1483 1483 1483 1483 1483
1456 1457 1457 1457 1458 1458 1458 1458 1458 1458 1459 1459 1459 1461 1462 1463 1464 1466 1467 1468 1469 1470 1471 1472 1473 1474 1476 1477 1478 1478 1479 1479 1479 1479 1479 1479 1479 1479 1479 1479 1479 1478 1479 1479
1455 1456 1456 1456 1457 1457 1458 1458 1458 1459 1459 1460 1461 1461 1462 1463 1464 1466 1467 1467 1468 1469 1470 1470 1471 1472 1473 1474 1474 1475 1475 1475 1475 1475 1475 1475 1475 1475 1475 1475 1475 1474 1474 1474
1454 1455 1455 1456 1456 1456 1457 1457 1457 1458 1460 1461 1462 1463 1463 1464 1465 1465 1466 1466 1466 1466 1467 1468 1469 1469 1470 1471 1471 1471 1471 1471 1472 1472 1472 1471 1471 1471 1471 1471 1470 1470 1470 1470
1452 1453 1454 1454 1455 1456 1456 1457 1458 1459 1460 1461 1463 1463 1464 1464 1464 1464 1464 1464 1464 1464 1464 1465 1466 1466 1467 1468 1468 1468 1468 1468 1468 1468 1468 1468 1467 1467 1467 1466 1466 1466 1465 1465
1451 1452 1453 1454 1454 1455 1456 1457 1459 1459 1461 1462 1462 1462 1462 1463 1463 1463 1463 1463 1462 1462 1463 1463 1464 1463 1464 1464 1465 1464 1464 1464 1464 1464 1464 1464 1463 1463 1463 1463 1462 1461 1461 1461
1449 1450 1452 1453 1454 1455 1456 1457 1459 1459 1460 1461 1461 1461 1461 1461 1462 1461 1461 1460 1460 1460 1460 1461 1461 1460 1461 1461 1461 1461 1460 1460 1460 1460 1460 1460 1460 1459 1459 1459 1458 1457 1457 1456
1448 1449 1451 1453 1454 1455 1456 1457 1458 1459 1460 1460 1460 1461 1461 1461 1460 1459 1459 1458 1458 1458 1458 1459 1458 1458 1458 1458 1458 1457 1457 1457 1457 1457 1457 1456 1456 1455 1455 1455 1454 1453 1452 1452
1447 1448 1450 1452 1453 1455 1456 1457 1458 1459 1459 1460 1460 1460 1460 1459 1459 1459 1458 1457 1457 1457 1457 1456 1456 1456 1455 1455 1454 1454 1454 1454 1454 1453 1453 1453 1452 1452 1451 1450 1450 1449 1448 1447
1446 1448 1449 1451 1452 1454 1455 1456 1457 1458 1458 1459 1459 1459 1458 1458 1458 1457 1457 1457 1456 1456 1455 1455 1454 1454 1453 1453 1452 1452 1451 1451 1451 1450 1450 1449 1449 1448 1448 1447 1446 1445 1444 1444
1445 1446 1448 1450 1451 1453 1454 1455 1456 1456 1457 1457 1457 1457 1457 1457 1457 1456 1456 1456 1455 1455 1454 1453 1452 1452 1451 1451 1450 1449 1449 1449 1448 1448 1447 1447 1446 1445 1444 1443 1442 1441 1441 1440
1444 1445 1447 1449 1451 1452 1453 1454 1455 1455 1456 1456 1456 1456 1456 1456 1456 1456 1455 1455 1455 1454 1453 1452 1451 1451 1450 1449 1448 1447 1447 1447 1446 1445 1445 1444 1443 1442 1441 1440 1439 1438 1438 1437
1443 1445 1446 1448 1450 1451 1452 1453 1454 1455 1455 1456 1456 1456 1455 1455 1455 1455 1455 1454 1454 1453 1452 1451 1451 1450 1449 1448 1447 1446 1445 1445 1444 1443 1442 1441 1440 1439 1438 1437 1436 1435 1434 1433
1443 1444 1446 1448 1449 1451 1452 1453 1453 1454 1455 1455 1455 1455 1455 1455 1455 1455 1455 1454 1453 1453 1452 1451 1450 1449 1448 1447 1446 1445 1444 1443 1442 1441 1440 1439 1437 1436 1435 1434 1432 1431 1430 1429
1443 1445 1446 1448 1449 1450 1452 1452 1453 1454 1454 1455 1455 1456 1456 1456 1455 1455 1455 1454 1453 1452 1452 1451 1450 1449 1447 1446 1445 1444 1442 1441 1440 1439 1438 1436 1435 1433 1431 1430 1428 1427 1426 1424